Meteo Giornale » Osservazioni meteo Italia » Napoli-Capodichino

ore: 18:50 - Osservazioni Meteo Napoli-Capodichino
Lat. 40° 51' N Lon. 14° 18' E Alt. 88 metri s.l.m.

poco_nuvoloso Europe/Rome

13 °C

Poco Nuvoloso

Temp. 24 Ore

9 °C

19 °C

Ovest/Nord-Ovest

11.1 Km/h

Dew point 9 °C

Umidità 76 %

Visibilità  10 Km

Il sole sorge alle ore 06:37

Il sole tramonta alle ore 17:53

Data e Ora Cielo e Fenomeni T °C DP °C Um. % Pres. hPa Vis. km Vento km/h
Oggi h: 18:50 poco_nuvoloso Poco Nuvoloso 13 9 76 1017 10 O/NO 11.1
Oggi h: 18:20 poco_nuvoloso Poco Nuvoloso 14 9 71 1017 10 O/NO 11.1
Oggi h: 17:50 poco_nuvoloso Poco Nuvoloso 14 9 71 1017 10 O 9.3
Oggi h: 17:20 poco_nuvoloso Poco Nuvoloso 15 9 67 1017 10 O 13
Oggi h: 16:50 poco_nuvoloso Poco Nuvoloso 16 9 63 1017 10 O 11.1
Oggi h: 16:20 poco_nuvoloso Poco Nuvoloso 18 9 55 1017 10 O 7.4
Oggi h: 15:50 poco_nuvoloso Poco Nuvoloso 18 8 51 1017 10 S 13
Oggi h: 15:20 poco_nuvoloso Poco Nuvoloso 18 9 55 1017 10 S 11.1
Oggi h: 14:50 poco_nuvoloso Poco Nuvoloso 18 10 59 1017 10 S 11.1
Oggi h: 14:20 poco_nuvoloso Poco Nuvoloso 18 10 59 1017 10 S/SO 9.3
Oggi h: 13:50 sereno Sereno 19 10 55 1017 10 S/SE 11.1
Oggi h: 13:20 sereno Sereno 19 9 52 1017 10 O 7.4
Oggi h: 12:50 sereno Sereno 18 8 51 1017 10 O 9.3
Oggi h: 12:20 sereno Sereno 19 9 52 1018 10 N 3.7
Oggi h: 11:50 sereno Sereno 18 9 55 1018 10 N 5.5
Oggi h: 11:20 sereno Sereno 17 9 59 1018 10 N 5.5
Oggi h: 10:50 sereno Sereno 16 9 63 1018 10 N 5.5
Oggi h: 10:20 sereno Sereno 15 8 62 1018 10 N 7.4
Oggi h: 09:50 sereno Sereno 14 9 71 1018 10 N 9.3
Oggi h: 09:20 sereno Sereno 13 8 71 1018 10 N 9.3
Oggi h: 08:50 sereno Sereno 12 8 76 1018 10 N 9.3
Oggi h: 08:20 sereno Sereno 11 8 81 1018 10 N 7.4
Oggi h: 07:50 sereno Sereno 10 7 81 1018 10 N/NO 7.4
Oggi h: 07:20 sereno Sereno 9 7 87 1018 10 N 5.5
Oggi h: 06:50 sereno Sereno 9 7 87 1017 10 N 5.5
Oggi h: 06:20 sereno Sereno 9 7 87 1017 10 N 5.5
Oggi h: 05:50 sereno Sereno 9 7 87 1017 10 N 5.5
Oggi h: 04:50 sereno Sereno 9 7 87 1017 10 N/NO 7.4
Oggi h: 04:20 sereno Sereno 9 7 87 1017 10 N 5.5
Oggi h: 03:50 sereno Sereno 10 7 81 1017 10 N/NO 9.3
Oggi h: 03:20 sereno Sereno 10 7 81 1017 10 N/NO 7.4
Oggi h: 02:50 sereno Sereno 9 6 81 1017 10 N 5.5
Oggi h: 02:20 sereno Sereno 10 7 81 1018 10 N 7.4
Oggi h: 01:50 sereno Sereno 11 7 76 1018 10 N 9.3
Oggi h: 01:20 sereno Sereno 11 7 76 1018 10 N 7.4
Oggi h: 00:50 sereno Sereno 10 6 76 1018 10 N 5.5
Oggi h: 00:20 sereno Sereno 10 7 81 1018 10 N 5.5
Ieri h: 23:50 sereno Sereno 11 7 76 1018 10 N 5.5
Ieri h: 22:50 sereno Sereno 11 7 76 1018 10 N 5.5
Ieri h: 21:50 sereno Sereno 11 7 76 1018 10 N 3.7
Ieri h: 21:20 sereno Sereno 12 7 71 1018 10 N/NO 7.4
Ieri h: 20:50 sereno Sereno 11 7 76 1018 10 N 3.7
Ieri h: 20:20 sereno Sereno 12 7 71 1017 10 N 3.7
Ieri h: 19:50 sereno Sereno 13 8 71 1017 10 N 5.5
Ieri h: 19:20 sereno Sereno 13 8 71 1017 10 N 5.5